Location: Dąbrowa
(52.7460°N, 17.9444°E)
Time: 14:36:27
(UTC+02:00)

ISS - Visible Passes

Search period start: 22 September 2018 00:00
Search period end: 02 October 2018 00:00
Orbit: 403 x 408 km, 51.6° (Epoch: 22 September)

Date Brightness Start Highest point End Pass type
(mag) Time Alt. Az. Time Alt. Az. Time Alt. Az.
22 Sep -1.4 20:28:20 10° S 20:28:51 12° S 20:28:51 12° S visible
23 Sep -1.6 19:37:53 10° SSE 19:38:56 11° SE 19:39:34 11° SE visible
23 Sep -1.3 21:11:40 10° SW 21:12:17 14° SW 21:12:17 14° SW visible
24 Sep -2.7 20:20:06 10° SSW 20:22:49 28° SSE 20:22:49 28° SSE visible
25 Sep -2.2 19:28:46 10° SSW 19:31:15 20° SE 19:33:12 13° ESE visible
25 Sep -2.2 21:04:04 10° WSW 21:05:53 29° SW 21:05:53 29° SW visible
26 Sep -3.4 20:12:18 10° SW 20:15:27 44° SSE 20:16:08 37° SE visible
26 Sep -0.7 21:48:30 10° W 21:48:48 12° W 21:48:48 12° W visible
27 Sep -2.8 19:20:38 10° SW 19:23:36 32° SSE 19:26:17 12° E visible
27 Sep -2.9 20:56:34 10° WSW 20:58:57 43° WSW 20:58:57 43° WSW visible
28 Sep -3.7 20:04:40 10° WSW 20:07:56 61° SSE 20:09:02 36° ESE visible
28 Sep -0.9 21:41:03 10° W 21:41:42 15° W 21:41:42 15° W visible
29 Sep -3.4 19:12:49 10° WSW 19:16:01 49° SSE 19:19:03 11° E visible
29 Sep -3.2 20:49:05 10° W 20:51:43 52° WSW 20:51:43 52° WSW visible
30 Sep -3.8 19:57:07 10° W 20:00:25 73° S 20:01:42 34° E visible
30 Sep -0.9 21:33:34 10° W 21:34:21 16° W 21:34:21 16° W visible
01 Oct -3.7 19:05:10 10° WSW 19:08:27 65° S 19:11:39 11° E visible
01 Oct -3.2 20:41:34 10° W 20:44:18 53° WSW 20:44:18 53° WSW visible
